This is the latest recevied weather packets stored in our database for station/object NE1CU. If no packets are shown the sender has not sent any weather packets the latest 10 day(s).
| Time | Temp. | Humidity | Pressure | Rain* | Wind** | Luminosity | Snow |
|---|---|---|---|---|---|---|---|
| 1777771696 | 10.56° C | 63% | 1010.8 hPa | 0 mm | - | 0 W/m² | - |
| 1777771394 | 10° C | 68% | 1011 hPa | 0 mm | - | 0 W/m² | - |
| 1777771090 | 10° C | 73% | 1010.9 hPa | 0 mm | - | 0 W/m² | - |
| 1777770787 | 9.44° C | 80% | 1010.8 hPa | 0 mm | - | 0 W/m² | - |
| 1777770483 | 10° C | 79% | 1010.7 hPa | 0 mm | - | 0 W/m² | - |
| 1777770181 | 10° C | 79% | 1010.7 hPa | 0 mm | - | 0 W/m² | - |
| 1777769878 | 10° C | 79% | 1010.6 hPa | 0 mm | - | 0 W/m² | - |
| 1777769575 | 10° C | 78% | 1010.4 hPa | 0 mm | - | 0 W/m² | - |
| 1777769271 | 10° C | 78% | 1010.5 hPa | 0 mm | - | 0 W/m² | - |
| 1777768969 | 10° C | 77% | 1010.6 hPa | 0 mm | - | 0 W/m² | - |
| 1777768666 | 10.56° C | 76% | 1010.5 hPa | 0 mm | - | 0 W/m² | - |
| 1777768363 | 10.56° C | 75% | 1010.4 hPa | 0 mm | - | 0 W/m² | - |
| 1777768060 | 10.56° C | 74% | 1010.3 hPa | 0 mm | - | 0 W/m² | - |
| 1777767757 | 11.11° C | 73% | 1010.4 hPa | 0 mm | - | 0 W/m² | - |
| 1777767453 | 11.11° C | 72% | 1010.3 hPa | 0 mm | - | 0 W/m² | - |
| 1777767149 | 11.67° C | 71% | 1010.2 hPa | 0 mm | - | 0 W/m² | - |
| 1777766848 | 11.67° C | 71% | 1010.2 hPa | 0 mm | - | 0 W/m² | - |
| 1777766544 | 11.67° C | 71% | 1010.3 hPa | 0 mm | - | 1 W/m² | - |
| 1777766241 | 12.22° C | 70% | 1010.1 hPa | 0 mm | - | 2 W/m² | - |
| 1777765939 | 12.22° C | 69% | 1010.2 hPa | 0 mm | - | 3 W/m² | - |
| 1777765635 | 12.22° C | 69% | 1010.2 hPa | 0 mm | - | 4 W/m² | - |
| 1777765333 | 12.22° C | 69% | 1010.1 hPa | 0 mm | - | 6 W/m² | - |
| 1777765028 | 12.22° C | 69% | 1010.2 hPa | 0 mm | - | 8 W/m² | - |
| 1777764725 | 12.78° C | 68% | 1009.9 hPa | 0 mm | - | 9 W/m² | - |
| 1777764421 | 12.78° C | 67% | 1009.9 hPa | 0 mm | - | 13 W/m² | - |
* Rain latest hour (hover to see other rain measurements)
** Current wind speed in m/s (hover to see current wind gust speed)